Content
SEND FEEDBACK

Daily
Averages
Monthly
Summary
United States of America

WILLIAMSTOWN, WEST VIRGINIA


Home > North America > United States > West Virginia
Elevation: 239 meters     Latitude: 39 21N     Longitude: 081 26W

WEATHER
 
SELECT A DAY
Number of Records: 206,623;   Date Range: 1/1/95 - 9/18/14
 
SHARE

PRINT THIS DATA

[ ← Previous Day ]
WEATHER ALMANAC - 5 FEBRUARY, 2013
[ Next Day → ]
[ °F ]   °C
Weather ElementAverageHighLow
Temperature1.1 °C2.2 °C (12:53 pm)0 °C (5:53 am)
Dewpoint-0.5 °C1.1 °C (10:53 am)-2.2 °C (3:53 pm)
Humidity89.7 %100 % (5:53 am)73 % (3:53 pm)
Barometer1013.2 hPa1016.6 hPa (11:53 pm)1011.9 hPa (12:48 am)
Wind Speed4.3 km/h24.1 km/h (12:53 pm)
Wind Gust37 km/h (12:53 pm)
Weather ElementAverage
Visibility5.1 km
Wind DirectionESE (123.5 °)

Weather ElementTotal
Precipitation1.52 mm
Heating Degree Days17.2 (Base 18.3)
Averaged from 48 records on 5 February, 2013
WEATHER CONDITIONS BREAKOUT
WIND DIRECTION BREAKOUT
WEATHER BY HOUR - 5 FEBRUARY, 2013
[ °F ]   °C
Local TimeTemperatureDewpointHumidityBarometerVisibilityWind DirectionWind SpeedGust SpeedPrecipitationEventsConditions
12:48 AM1 °C0 °C93 %1011.9 hPa4 kmCalm0.25 mmRainLight Rain
12:53 AM1.1 °C0 °C92 %1012.9 hPa4 kmCalm0.51 mmOvercast
1:22 AM1 °C0 °C93 %1011.9 hPa2.9 kmCalm0 mmOvercast
1:53 AM0.6 °C0 °C96 %1012.9 hPa2.9 kmWSW (250°)5.6 km/h0.25 mmOvercast
2:09 AM1 °C0 °C93 %1012.2 hPa2.9 kmWest (270°)5.6 km/hOvercast
2:16 AM1 °C0 °C93 %1012.2 hPa3.2 kmWest (260°)5.6 km/hOvercast
2:43 AM1 °C0 °C93 %1012.2 hPa6.4 kmWest (260°)5.6 km/hOvercast
2:53 AM1.1 °C0 °C92 %1013.2 hPa8 kmWSW (250°)7.4 km/hOvercast
3:27 AM1 °C0 °C93 %1012.2 hPa8 kmWest (270°)9.3 km/hOvercast
3:53 AM1.1 °C0 °C92 %1012.9 hPa11.3 kmWest (280°)7.4 km/hOvercast
4:00 AM1 °C0 °C93 %1012.2 hPa9.7 kmWest (280°)7.4 km/hOvercast
4:29 AM1 °C0 °C93 %1012.2 hPa9.7 kmCalmOvercast
4:53 AM0.6 °C0 °C96 %1012.9 hPa6.4 kmSSE (160°)5.6 km/hOvercast
5:47 AM1 °C0 °C93 %1011.9 hPa2.9 kmSSE (150°)5.6 km/hOvercast
5:53 AM0 °C0 °C100 %1012.5 hPa1.9 kmCalmOvercast
6:06 AM1 °C0 °C93 %1011.9 hPa4 kmCalmOvercast
6:30 AM1 °C-1 °C87 %1012.2 hPa1.6 kmCalmOvercast
6:37 AM1 °C-1 °C87 %1012.2 hPa4.8 kmSouth (170°)5.6 km/hOvercast
6:40 AM1 °C-1 °C87 %1011.9 hPa2.4 kmCalmOvercast
6:49 AM1 °C-1 °C87 %1011.9 hPa1.3 kmCalmOvercast
6:53 AM0.6 °C-0.6 °C92 %1012.9 hPa3.2 kmCalmOvercast
7:02 AM1 °C-1 °C87 %1012.2 hPa4.8 kmCalmOvercast
7:04 AM1 °C0 °C93 %1012.2 hPa3.2 kmCalmOvercast
7:53 AM0.6 °C0 °C96 %1013.2 hPa3.2 kmCalmOvercast
8:53 AM0.6 °C0 °C96 %1013.2 hPa3.2 kmCalmOvercast
9:53 AM1.1 °C0 °C92 %1013.2 hPa4.8 kmSW (220°)5.6 km/hOvercast
10:08 AM1 °C1 °C100 %1012.5 hPa3.2 kmCalmOvercast
10:28 AM2 °C1 °C93 %1012.5 hPa3.2 kmCalmOvercast
10:37 AM1 °C0 °C93 %1012.9 hPa2.4 kmNW (320°)5.6 km/hOvercast
10:53 AM1.7 °C1.1 °C96 %1013.2 hPa1.9 kmCalmOvercast
11:53 AM1.7 °C0.6 °C92 %1013.5 hPa2.9 kmWest (270°)7.4 km/hOvercast
12:53 PM2.2 °C-0.6 °C82 %1013.5 hPa8 kmWest (270°)24.1 km/h37 km/hHaze
1:53 PM2.2 °C-1.1 °C79 %1013.5 hPa9.7 kmWSW (250°)16.7 km/hHaze
2:53 PM2.2 °C-1.7 °C76 %1013.2 hPa11.3 kmWest (270°)11.1 km/hScattered Clouds
3:53 PM2.2 °C-2.2 °C73 %1013.5 hPa11.3 kmWest (260°)13 km/hOvercast
4:53 PM2.2 °C-2.2 °C73 %1013.9 hPa11.3 kmWest (280°)11.1 km/hOvercast
5:34 PM2 °C-2 °C75 %1013.2 hPa3.2 kmWest (260°)5.6 km/h0 mmSnowLight Snow
5:46 PM1 °C-2 °C81 %1012.9 hPa3.2 kmCalm0.25 mmSnowLight Snow
5:53 PM1.1 °C-1.7 °C82 %1013.9 hPa3.2 kmWest (260°)5.6 km/h0.25 mmSnowLight Snow
6:11 PM1 °C-1 °C87 %1013.2 hPa3.2 kmCalm0 mmSnowLight Snow
6:53 PM0.6 °C-1.1 °C89 %1013.9 hPa3.2 kmEast (80°)5.6 km/h0 mmOvercast
7:53 PM0.6 °C-1.1 °C89 %1013.9 hPa6.4 kmNE (40°)7.4 km/hOvercast
8:53 PM0.6 °C-0.6 °C92 %1014.2 hPa4.8 kmCalmOvercast
9:53 PM0.6 °C-0.6 °C92 %1014.9 hPa6.4 kmCalmOvercast
10:50 PM0 °C-1 °C93 %1014.9 hPa4.8 kmCalm0 mmOvercast
10:53 PM0 °C-0.6 °C96 %1015.9 hPa4.8 kmCalm0 mmOvercast
11:35 PM1 °C-1 °C87 %1015.6 hPa4.8 kmWest (270°)5.6 km/hOvercast
11:53 PM1.1 °C-1.1 °C85 %1016.6 hPa9.7 kmWest (280°)11.1 km/hOvercast
Hourly data recorded from KPKB, located 0 kilometers away from Williamstown, West Virginia







STORIES FROM OUR PARTNERS